Doha, Qatar

12:21 AM +03 on May 25, 2017 (GMT +0300)
Doha International

Weather History for OTBD - November, 2012

Change the Weather History Date:

Wednesday, November 7, 2012

  Actual Average Record
Temperature  
Mean Temperature 84 °F -  
Max Temperature 95 °F 83 °F 98 °F (2006)
Min Temperature 73 °F 65 °F 68 °F (1996)
Cooling Degree Days 19    
Growing Degree Days 34 (Base 50)    
Moisture  
Dew Point 57 °F    
Average Humidity 43    
Maximum Humidity 74    
Minimum Humidity 17    
Precipitation  
Precipitation 0.00 in 0.01 in - ()
Sea Level Pressure  
Sea Level Pressure 29.96 in    
Wind  
Wind Speed 5 mph ()    
Max Wind Speed 10 mph    
Max Gust Speed -    
Visibility 5.3 miles    
Events      
Averages and records for this station are not official NWS values.
T = Trace of Precipitation, MM = Missing Value Source: Averaged Metar Reports

Daily Weather History Graph

Daily Weather History Graph

Search for Another Location

Airport or City:

Trip Planner

Search our weather history database for the weather conditions in past years. The results will help you decide how hot, cold, wet, or windy it might be!

Date:

Astronomy

Nov. 07, 2012 Rise Set
Actual Time 5:45 AM +03 4:49 PM +03
Civil Twilight 5:21 AM +03 5:12 PM +03
Nautical Twilight 4:54 AM +03 5:40 PM +03
Astronomical Twilight 4:27 AM +03 6:07 PM +03
Moon 11:54 PM +03 (11/7) 12:05 PM +03 (11/7)
Length of Visible Light 11h 51m
Length of Day
11h 03m
Waning Gibbous, 46% of the Moon is Illuminated
Nov 7
Waning Gibbous
Nov 14
New
Nov 20
First Quarter
Nov 28
Full
Dec 6
Last Quarter

Hourly Weather History & Observations

Time (+03) Temp. Heat Index Dew Point Humidity Pressure Visibility Wind Dir Wind Speed Gust Speed Precip Events Conditions
12:00 AM 80.6 °F 80.3 °F 53.6 °F 39% 29.98 in - Variable 2.3 mph - N/A   Clear
12:30 AM 78.8 °F - 57.2 °F 47% 29.98 in - Variable 2.3 mph - N/A   Clear
1:00 AM 78.8 °F - 55.4 °F 44% 29.95 in 4.3 mi SW 3.5 mph - N/A   Unknown
1:30 AM 78.8 °F - 55.4 °F 44% 29.95 in 4.3 mi SW 3.5 mph - N/A   Unknown
2:00 AM 77.0 °F - 55.4 °F 47% 29.95 in 5.0 mi WSW 3.5 mph - N/A   Unknown
2:30 AM 77.0 °F - 57.2 °F 50% 29.95 in 5.6 mi WSW 3.5 mph - N/A   Unknown
3:00 AM 77 °F - 56 °F 37% 29.96 in 6 mi WSW 3.5 mph - -  
3:00 AM 77.0 °F - 55.4 °F 47% 29.95 in - WSW 3.5 mph - N/A   Clear
3:30 AM 77.0 °F - 55.4 °F 47% 29.95 in - SW 3.5 mph - N/A   Clear
4:00 AM 75.2 °F - 55.4 °F 50% 29.95 in - SW 5.8 mph - N/A   Clear
4:30 AM 75.2 °F - 55.4 °F 50% 29.95 in - SW 4.6 mph - N/A   Clear
5:00 AM 73.4 °F - 55.4 °F 53% 29.98 in - SW 4.6 mph - N/A   Clear
5:30 AM 73.4 °F - 55.4 °F 53% 29.98 in - WSW 4.6 mph - N/A   Clear
6:00 AM 75.2 °F - 53.6 °F 47% 29.98 in - WSW 5.8 mph - N/A   Clear
6:30 AM 75.2 °F - 53.6 °F 47% 30.01 in - West 3.5 mph - N/A   Clear
7:00 AM 77.0 °F - 51.8 °F 41% 30.01 in - WSW 5.8 mph - N/A   Clear
7:30 AM 78.8 °F - 55.4 °F 44% 30.01 in - WSW 5.8 mph - N/A   Clear
8:00 AM 82.4 °F 81.4 °F 53.6 °F 37% 30.01 in 5.6 mi WSW 8.1 mph - N/A   Unknown
8:30 AM 84.2 °F 83.0 °F 55.4 °F 37% 30.04 in 5.6 mi WSW 5.8 mph - N/A   Unknown
9:00 AM 85 °F - 55 °F 26% 30.04 in 6 mi West 6.9 mph - -   Smoke
9:00 AM 84.2 °F 83.0 °F 55.4 °F 37% 30.04 in 5.6 mi West 6.9 mph - N/A   Unknown
9:30 AM 86.0 °F - 51.8 °F 31% 30.01 in - Variable 6.9 mph - N/A   Clear
10:00 AM 87.8 °F - 48.2 °F 25% 30.01 in - West 5.8 mph - N/A   Clear
10:30 AM 89.6 °F - 50.0 °F 26% 30.01 in - Variable 5.8 mph - N/A   Clear
11:00 AM 91.4 °F - 46.4 °F 21% 29.98 in - Variable 5.8 mph - N/A   Clear
11:30 AM 91.4 °F - 44.6 °F 20% 29.98 in - WNW 6.9 mph - N/A   Clear
12:00 PM 93.2 °F - 42.8 °F 17% 29.95 in - NW 6.9 mph - N/A   Clear
12:30 PM 93.2 °F - 44.6 °F 19% 29.95 in - NW 9.2 mph - N/A   Clear
1:00 PM 93.2 °F - 44.6 °F 19% 29.95 in - NW 9.2 mph - N/A   Clear
1:30 PM 93.2 °F - 46.4 °F 20% 29.92 in - Variable 10.4 mph - N/A   Clear
2:00 PM 93.2 °F - 50.0 °F 23% 29.92 in - North 9.2 mph - N/A   Clear
2:30 PM 91.4 °F - 50.0 °F 24% 29.92 in - North 9.2 mph - N/A   Clear
3:00 PM 91 °F - 52 °F 17% 29.93 in 7 mi NNE 8.1 mph - -   Scattered Clouds
3:00 PM 91.4 °F - 51.8 °F 26% 29.92 in - NNE 8.1 mph - N/A   Clear
3:30 PM 89.6 °F 88.1 °F 57.2 °F 33% 29.92 in - NNE 9.2 mph - N/A   Clear
4:00 PM 87.8 °F 88.5 °F 62.6 °F 43% 29.92 in - NNE 8.1 mph - N/A   Clear
4:30 PM 86.0 °F 88.2 °F 66.2 °F 51% 29.92 in - NNE 6.9 mph - N/A   Clear
5:00 PM 84.2 °F 87.3 °F 68.0 °F 58% 29.92 in - North 4.6 mph - N/A   Clear
5:30 PM 87.8 °F 86.1 °F 55.4 °F 33% 29.95 in - NNW 5.8 mph - N/A   Clear
6:00 PM 86.0 °F 85.4 °F 59.0 °F 40% 29.95 in - NNW 9.2 mph - N/A   Clear
6:30 PM 84.2 °F 84.4 °F 60.8 °F 45% 29.95 in - NNW 9.2 mph - N/A   Clear
7:00 PM 84.2 °F 85.6 °F 64.4 °F 51% 29.95 in - NNW 6.9 mph - N/A   Clear
7:30 PM 82.4 °F 85.4 °F 68.0 °F 62% 29.98 in - NNW 9.2 mph - N/A   Clear
8:00 PM 82.4 °F 85.4 °F 68.0 °F 62% 29.98 in - NNW 9.2 mph - N/A   Clear
8:30 PM 82.4 °F 86.3 °F 69.8 °F 66% 29.98 in 5.6 mi NNW 10.4 mph - N/A   Unknown
9:00 PM 82 °F - 70 °F 59% 29.97 in 5 mi NNW 10.4 mph - -   Widespread Dust
9:00 PM 82.4 °F 86.3 °F 69.8 °F 66% 29.95 in 5.0 mi NNW 10.4 mph - N/A   Unknown
9:30 PM 82.4 °F 86.3 °F 69.8 °F 66% 29.95 in 5.0 mi NNW 9.2 mph - N/A   Unknown
10:00 PM 80.6 °F 84.6 °F 71.6 °F 74% 29.95 in 5.0 mi NNW 6.9 mph - N/A   Unknown
10:30 PM 80.6 °F 83.9 °F 69.8 °F 70% 29.95 in 5.0 mi NNW 6.9 mph - N/A   Unknown
11:00 PM 80.6 °F 83.9 °F 69.8 °F 70% 29.95 in 5.0 mi NNW 3.5 mph - N/A   Unknown
11:30 PM 80.6 °F 83.9 °F 69.8 °F 70% 29.92 in 5.0 mi NW 4.6 mph - N/A   Unknown